EHI
5 5 4 3 2 1 0 0 0 0 0 0 0 0 0 0 0 0 0 0 0 0 0 0 0 0 0 0 0 0 0 0 0 0 0 0 0 0 0 0 0 0 0
4 4 3 3 2 1 0 0 0 0 0 0 1 1 0 0 0 0 0 0 0 0 0 0 0 0 0 0 0 0 0 0 0 0 0 0 0 0 0 0 0 0 0
3 3 3 3 1 0 0 0 0 0 1 1 1 1 0 0 0 0 0 0 0 0 0 0 0 0 0 0 0 0 0 0 0 0 0 0 0 0 0 0 0 0 0
3 3 3 2 1 0 0 0 0 1 2 2 1 1 0 0 0 0 0 0 0 0 0 0 0 0 0 0 0 0 0 0 0 0 0 0 0 0 0 0 0 0 0
4 4 3 2 0 0 0 0 0 1 2 1 0 0 0 0 0 0 0 0 0 0 0 0 0 0 0 0 0 0 0 0 0 0 0 0 0 0 0 0 0 0 0
4 4 4 3 1 1 1 0 0 1 1 0 0 0 0 0 0 0 0 0 0 0 0 0 0 0 0 0 0 0 0 0 0 0 0 0 0 0 0 0 0 0 0
4 4 4 3 2 2 1 0 0 0 0 0 0 0 0 0 0 0 0 0 0 0 0 0 0 0 0 0 0 0 0 0 0 0 0 0 0 0 0 0 0 0 0
3 2 3 3 3 2 1 0 0 0 0 0 0 0 0 0 0 0 0 0 0 0 0 0 0 0 0 0 0 0 0 0 0 0 0 0 0 0 0 0 0 0 0
1 1 2 3 3 2 1 0 0 0 0 0 0 0 0 0 0 0 0 0 0 0 0 0 0 0 0 0 0 0 0 0 0 0 0 0 0 0 0 0 0 0 0
1 1 3 3 3 2 1 0 0 0 0 0 0 0 0 0 0 0 0 0 0 0 0 0 0 0 0 0 0 0 0 0 0 0 0 0 0 0 0 0 0 0 0
2 3 3 2 1 1 0 0 0 0 0 0 0 0 0 0 0 0 0 0 0 0 0 0 0 0 0 0 0 0 0 0 0 0 0 0 0 0 0 0 0 0 0
2 2 2 1 0 0 0 0 0 0 0 0 0 0 0 0 0 0 0 0 0 0 0 0 0 0 0 0 0 0 0 0 0 0 0 0 0 0 0 0 0 0 0
1 1 1 0 0 0 0 0 0 0 0 0 0 0 0 0 0 0 0 0 0 0 0 0 0 0 0 0 0 0 0 0 0 0 0 0 0 0 0 0 0 0 0
0 0 0 0 0 0 0 0 0 0 0 0 0 0 0 0 0 0 0 0 0 0 0 0 0 0 0 0 0 0 0 0 0 0 0 0 0 0 0 0 0 0 0
0 0 0 0 0 0 0 0 0 0 0 0 0 0 0 0 0 0 0 0 0 0 0 0 0 0 0 0 0 0 0 0 0 0 0 0 0 0 0 0 0 0 0
0 0 0 0 0 0 0 0 0 0 0 0 0 0 0 0 0 0 0 0 0 0 0 0 0 0 0 0 0 0 0 0 0 0 0 0 0 0 0 0 0 0 0
0 0 0 0 0 0 0 0 0 0 0 0 0 0 0 0 0 0 0 0 0 0 0 0 0 0 0 0 0 0 0 0 0 0 0 0 0 0 0 0 0 0 0
0 0 0 0 0 0 0 0 0 0 0 0 0 0 0 0 0 0 0 0 0 0 0 0 0 0 0 0 0 0 0 0 0 0 0 0 0 0 0 0 0 0 0
0 0 0 0 0 0 0 0 0 0 0 0 0 0 0 0 0 0 0 0 0 0 0 0 0 0 0 0 0 0 0 0 0 0 0 0 0 0 0 0 0 0 0
0 0 0 0 0 0 0 0 0 0 0 0 0 0 0 0 0 0 0 0 0 0 0 0 0 0 0 0 0 0 0 0 0 0 0 0 0 0 0 0 0 0 0
0 0 0 0 0 0 0 0 0 0 0 0 0 0 0 0 0 0 0 0 0 0 0 0 0 0 0 0 0 0 0 0 0 0 0 0 0 0 0 0 0 0 0
0 0 0 0 0 0 0 0 0 0 0 0 0 0 0 0 0 0 0 0 0 0 0 0 0 0 0 0 0 0 0 0 0 0 0 0 0 0 0 0 0 0 0
0 0 0 0 0 0 0 0 0 0 0 0 0 0 0 0 0 0 0 0 0 0 0 0 0 0 0 0 0 0 0 0 0 0 0 0 0 0 0 0 0 0 0
0 0 0 0 0 0 0 0 0 0 0 0 0 0 0 0 0 0 0 0 0 0 0 0 0 0 0 0 0 0 0 0 0 0 0 0 0 0 0 0 0 0 0
0 0 0 0 0 0 0 0 0 0 0 0 0 0 0 0 0 0 0 0 0 0 0 0 0 0 0 0 0 0 0 0 0 0 0 0 0 0 0 0 0 0 0
0 0 0 0 0 0 0 0 0 0 0 0 0 0 0 0 0 0 0 0 0 0 0 0 0 0 0 0 0 0 0 0 0 0 0 0 0 0 0 0 0 0 0
Wind_Speed
4 3 3 3 3 2 2 2 1 1 1 1 2 1 2 2 2 2 2 3 3 3 3 2 3 3 2 2 1 1 1 2 2 2 1 1 1 2 1 2 2 2 3
4 4 3 3 3 2 2 2 2 1 1 1 1 1 1 2 2 2 2 2 3 3 3 3 3 2 2 2 1 1 1 2 2 2 1 1 2 2 2 2 2 3 3
4 4 3 3 3 3 2 2 2 2 2 2 1 1 2 2 2 2 2 2 2 3 3 3 3 2 2 2 1 1 1 1 1 2 1 1 1 1 1 2 2 2 3
5 5 4 4 4 3 3 2 2 2 2 2 1 1 2 2 2 2 2 2 3 3 3 3 2 2 2 2 1 1 1 0 1 1 1 1 1 1 1 1 2 2 3
5 5 5 4 3 3 2 2 2 2 2 1 1 1 2 1 2 2 2 2 2 3 4 3 3 3 3 2 2 2 1 1 1 1 1 1 1 1 2 2 2 2 3
5 5 5 4 3 3 3 2 2 1 1 1 1 2 2 2 4 4 3 2 2 2 3 4 4 4 4 3 3 3 3 3 3 2 2 2 3 3 2 2 1 1 2
4 4 4 4 4 3 3 2 2 2 1 2 2 2 3 4 6 6 5 2 2 3 3 3 4 4 4 2 3 3 3 5 6 4 4 4 4 4 3 2 2 2 4
4 4 4 4 4 3 2 2 2 2 2 2 3 3 3 5 6 6 5 2 2 3 3 3 3 4 4 2 2 3 3 3 4 4 5 6 5 4 4 4 3 2 2
3 4 4 4 3 3 3 3 2 2 2 3 3 3 3 5 6 5 4 1 2 4 4 3 3 3 5 3 2 3 4 4 5 6 6 7 8 7 5 2 2 1 2
3 4 4 3 3 3 3 2 2 2 2 3 3 3 4 5 7 6 4 1 2 3 4 4 5 5 6 4 2 2 4 5 4 4 4 5 5 6 7 6 5 3 2
3 3 3 3 2 3 2 2 2 2 2 3 3 4 4 5 6 6 5 2 2 3 3 4 4 7 7 7 5 4 6 6 4 4 4 4 3 3 4 4 5 5 4
3 3 3 2 2 1 2 2 2 2 2 3 3 5 4 4 4 4 5 5 4 2 4 4 4 8 9 8 6 6 7 5 2 2 3 3 3 4 4 4 5 6 6
3 2 2 2 1 1 2 2 2 2 2 3 3 4 4 4 3 5 5 6 6 3 4 6 8 10 9 6 6 8 6 3 2 2 3 4 4 4 3 3 3 4 5
4 2 2 1 2 2 2 2 2 3 3 3 4 4 4 3 3 3 3 3 4 4 4 6 8 8 6 6 6 5 3 3 3 4 4 4 3 2 3 3 3 2 2
3 2 2 2 2 2 3 3 4 4 5 5 4 4 4 5 6 6 3 3 2 3 3 3 3 3 3 3 3 4 3 2 3 3 4 4 3 3 3 3 2 2 3
3 2 2 2 2 2 2 4 5 6 9 9 8 7 5 8 9 8 7 5 4 3 1 2 4 4 4 4 4 4 3 3 3 3 3 4 4 4 4 3 3 3 4
4 3 2 2 2 3 3 3 4 6 7 8 8 8 7 8 8 7 5 4 4 2 1 3 4 4 4 4 4 4 4 4 3 3 3 4 4 4 3 3 3 3 4
4 4 3 3 3 3 3 3 3 3 4 5 6 6 7 7 6 6 3 2 3 1 2 4 4 5 4 4 4 4 4 4 3 3 3 3 3 3 4 4 4 4 4
3 3 3 3 3 3 3 3 3 3 3 3 4 5 5 4 4 4 1 1 3 4 4 4 4 4 4 4 4 4 4 3 3 3 3 4 4 4 4 4 4 5 4
3 5 4 2 2 3 3 3 3 3 3 3 4 4 2 1 1 2 1 2 3 4 4 4 4 4 4 3 3 3 3 3 3 3 3 3 3 3 4 5 4 4 4
2 3 4 3 3 3 3 3 3 3 3 4 4 4 3 2 3 3 3 3 3 4 4 4 4 3 3 2 2 3 3 3 3 3 3 4 3 3 4 4 5 5 5
2 2 2 2 3 3 4 3 3 3 4 4 4 3 3 2 2 3 3 4 4 3 3 3 3 3 2 2 2 2 3 3 3 3 3 4 4 4 4 3 4 4 4
2 2 2 3 3 4 4 3 3 3 3 3 3 2 2 2 3 4 4 4 4 3 3 2 2 2 2 2 2 2 2 3 4 3 4 4 4 3 3 3 4 4 4
2 3 3 3 3 3 3 3 3 2 2 2 2 2 2 2 3 4 4 3 3 2 2 1 1 1 2 2 2 1 2 3 3 3 4 3 4 3 3 4 4 5 4
2 2 3 3 3 3 3 2 2 2 2 2 2 2 2 2 2 3 3 2 2 2 2 2 2 2 3 3 2 2 2 3 3 3 3 2 3 4 4 4 4 4 4
2 2 2 2 2 2 2 2 2 2 2 2 2 2 2 2 2 2 2 2 2 2 2 2 3 3 4 3 3 3 3 4 4 4 3 2 3 4 4 4 5 4 4
Wind_Direction
168 163 155 161 156 147 155 190 212 240 263 275 277 288 304 311 320 329 309 306 308 305 301 290 289 283 289 285 262 237 218 177 210 265 251 237 218 232 232 221 227 226 229
170 163 164 162 158 159 175 205 213 240 273 278 282 294 304 316 323 329 317 313 306 305 304 301 295 299 294 290 271 246 236 205 185 210 262 246 240 233 222 226 234 229 229
163 159 159 165 167 178 198 211 221 241 272 290 284 297 302 305 307 300 295 309 308 300 299 296 293 299 307 305 293 258 243 219 176 184 233 245 255 239 227 253 251 263 249
161 164 172 184 186 193 204 214 231 241 256 278 277 280 282 285 289 293 304 308 311 312 307 299 299 286 273 273 266 247 210 185 184 186 232 258 264 263 205 241 273 267 261
165 173 189 199 196 196 206 221 237 246 247 249 253 283 290 280 273 274 284 293 304 314 319 314 306 306 290 263 240 223 196 188 196 200 237 260 263 252 237 227 244 273 273
171 184 192 194 193 199 213 221 228 250 260 272 268 268 289 282 281 278 268 283 291 295 304 310 311 312 308 297 273 248 215 198 201 201 218 230 245 238 231 225 222 242 277
177 185 190 192 194 200 206 199 213 240 269 276 277 274 280 282 286 287 281 260 274 277 280 291 303 312 317 301 295 291 265 234 214 198 213 230 229 223 206 224 223 214 235
184 189 191 191 198 202 195 206 229 239 248 256 264 272 274 279 284 285 285 273 278 280 274 268 274 294 300 290 288 295 281 266 242 222 219 231 233 229 212 212 219 229 266
185 191 192 187 186 190 204 226 237 234 266 266 263 265 268 279 283 282 277 284 288 294 293 285 263 270 286 294 277 288 294 291 273 248 236 239 242 238 220 185 196 191 269
196 196 191 184 181 196 215 233 236 239 262 277 274 266 260 268 277 275 260 227 280 293 300 296 279 269 276 281 256 262 279 284 292 301 287 274 257 250 234 208 199 199 219
190 179 177 181 192 205 215 227 236 256 288 294 290 289 278 268 273 272 255 215 238 275 290 294 288 290 283 278 270 245 251 265 279 277 283 284 278 264 248 226 209 199 204
169 168 180 199 217 204 214 255 265 264 283 291 295 301 294 283 270 266 255 241 234 240 268 277 282 292 288 286 279 266 269 273 268 278 276 273 269 263 256 245 229 221 222
162 178 199 219 240 234 231 253 271 268 260 275 278 281 289 293 283 265 258 256 252 241 259 272 283 290 292 288 275 277 279 260 251 257 262 261 253 251 254 265 265 245 244
166 188 204 216 260 274 264 248 247 253 258 268 272 272 279 286 285 278 271 268 271 268 275 286 291 288 282 276 282 285 265 240 228 241 253 261 267 267 255 244 253 261 269
174 191 215 230 241 264 271 256 246 244 234 234 251 250 253 269 268 257 248 258 263 271 294 300 302 306 304 296 290 279 271 262 244 242 250 262 265 263 262 248 235 233 235
173 200 223 240 261 262 273 299 293 270 270 261 253 249 257 256 268 272 271 271 275 271 255 284 290 287 284 286 288 287 277 266 256 248 248 249 254 258 264 264 243 230 242
179 202 219 235 251 261 261 265 291 307 302 289 276 269 259 264 271 275 283 297 293 234 235 270 277 280 279 278 274 268 268 266 257 250 255 255 252 255 256 263 262 254 253
194 211 218 232 244 252 258 258 253 265 292 304 302 284 272 268 274 282 289 341 313 268 239 261 274 278 277 277 274 267 267 271 264 255 255 261 256 252 256 261 262 255 258
206 224 233 244 254 256 261 267 269 265 264 281 299 305 292 283 287 287 230 201 260 279 275 270 270 274 277 276 274 270 267 269 271 267 263 262 261 258 258 260 263 267 263
217 235 239 240 259 270 272 274 276 273 275 275 277 282 301 346 318 303 250 239 249 261 269 274 277 277 279 283 289 289 283 277 276 265 265 267 263 258 262 264 263 264 259
218 242 254 256 257 259 263 263 260 264 269 269 271 278 253 233 259 269 269 256 254 259 266 270 273 278 281 288 295 299 296 289 281 271 267 264 259 259 259 261 260 259 259
216 238 251 252 257 264 266 266 267 268 270 274 284 294 266 246 262 270 270 269 266 258 255 257 260 260 261 269 280 283 285 288 291 288 283 278 271 267 269 273 280 278 272
217 238 259 267 266 271 276 274 269 268 272 276 282 287 277 265 266 268 271 273 276 275 275 267 263 272 277 272 272 266 270 276 278 283 286 284 285 284 285 283 281 284 285
217 236 253 270 278 274 274 277 274 275 276 273 277 271 270 274 279 282 283 285 290 295 299 298 280 267 281 284 283 277 270 276 278 274 276 277 284 287 287 286 286 286 285
227 245 259 268 273 273 280 284 288 291 286 280 283 286 288 289 289 292 292 296 310 322 331 327 316 302 300 302 312 313 308 310 314 313 302 293 291 292 294 294 293 296 294
242 258 266 270 276 281 285 291 291 284 280 288 292 291 298 297 293 294 300 322 338 341 339 337 337 336 329 323 333 339 338 338 338 334 328 314 307 305 306 301 300 299 302